This is the latest recevied weather packets stored in our database for station/object KG5MMT-12. If no packets are shown the sender has not sent any weather packets the latest 10 day(s).
| Time | Temp. | Humidity | Pressure | Rain* | Wind** | Luminosity | Snow |
|---|---|---|---|---|---|---|---|
| 1778097527 | 13.33° C | 45% | 0 hPa | 0 mm | - | - | - |
| 1778097227 | 12.78° C | 43% | 0 hPa | 0 mm | - | - | - |
| 1778096927 | 13.89° C | 45% | 0 hPa | 0 mm | - | - | - |
| 1778096627 | 13.33° C | 41% | 0 hPa | 0 mm | - | - | - |
| 1778096327 | 13.33° C | 44% | 0 hPa | 0 mm | - | - | - |
| 1778096027 | 13.33° C | 43% | 0 hPa | 0 mm | - | - | - |
| 1778095727 | 13.33° C | 42% | 0 hPa | 0 mm | - | - | - |
| 1778095427 | 13.33° C | 41% | 0 hPa | 0 mm | - | - | - |
| 1778095127 | 13.33° C | 41% | 0 hPa | 0 mm | - | - | - |
| 1778094827 | 13.33° C | 41% | 0 hPa | 0 mm | - | - | - |
| 1778094527 | 13.33° C | 42% | 0 hPa | 0 mm | - | - | - |
| 1778094227 | 13.33° C | 41% | 0 hPa | 0 mm | - | - | - |
| 1778093927 | 13.33° C | 41% | 0 hPa | 0 mm | - | - | - |
| 1778093627 | 13.33° C | 41% | 0 hPa | 0 mm | - | - | - |
| 1778093327 | 13.89° C | 38% | 0 hPa | 0 mm | - | - | - |
| 1778093027 | 13.89° C | 40% | 0 hPa | 0 mm | - | - | - |
| 1778092727 | 13.89° C | 40% | 0 hPa | 0 mm | - | - | - |
| 1778092427 | 13.33° C | 43% | 0 hPa | 0 mm | - | - | - |
| 1778092127 | 12.78° C | 40% | 0 hPa | 0 mm | - | - | - |
| 1778091827 | 13.33° C | 40% | 0 hPa | 0 mm | - | - | - |
| 1778091527 | 13.33° C | 41% | 0 hPa | 0 mm | - | - | - |
| 1778091227 | 13.33° C | 41% | 0 hPa | 0 mm | - | - | - |
| 1778090927 | 13.33° C | 40% | 0 hPa | 0 mm | - | - | - |
| 1778090627 | 12.78° C | 40% | 0 hPa | 0 mm | - | - | - |
| 1778090327 | 13.33° C | 40% | 0 hPa | 0 mm | - | - | - |
* Rain latest hour (hover to see other rain measurements)
** Current wind speed in m/s (hover to see current wind gust speed)